Location: *
(33.8649°S, 62.1526°E)
Time: 10:12:12
(UTC+00:00)

Cosmos 44 Rocket - Pass Details

Date: 02 December 2021
Orbit: 648 x 741 km, 65.1° (Epoch: 23 January)

Event Time Altitude Azimuth Distance (km) Brightness Sun altitude
Exits shadow 19:38:47 16° 231° (SW) 1,732 5.7 -34.1°
Maximum altitude 19:38:57 16° 229° (SW) 1,732 5.7 -34.1°
Drops below altitude 10° 19:41:48 10° 192° (SSW) 2,094 6.5 -34.1°
Sets 19:45:02 0° 169° (S) 3,027 7.6 -34.1°
